Flight Track Log - Related Links

Times and Time Zones

All times are in EDT time to prevent confusion due to time zone crossing. See the SWA407 flight status page for this flight to view local times or setup timezone preferences in your user account.

Time Position Orientation Groundspeed Altitude Reporting Facility
EDT Latitude Longitude Course Direction KTS MPH feet Rate Location/Type
15:00 28.4333 -81.3000 41° Northeast 165 190 500  Level Orlando TRACON
15:00 28.4500 -81.2833 41° Northeast 159 183 1,900 3,429 Climbing Orlando TRACON
15:01 28.5000 -81.2667 16° North 212 244 5,700 3,800 Climbing Orlando TRACON
15:02 28.5500 -81.2833 344° North 220 253 9,500 3,031 Climbing Orlando TRACON
15:05 28.7400 -81.3747 337° Northwest 324 373 15,600 2,878 Climbing Jacksonville Center
15:06 28.8406 -81.4089 343° North 347 399 18,900 3,200 Climbing Jacksonville Center
15:07 28.9411 -81.4428 344° North 363 418 22,000 2,950 Climbing Jacksonville Center
15:08 29.0458 -81.4794 343° North 382 440 24,800 2,550 Climbing Jacksonville Center
15:09 29.1528 -81.5158 343° North 392 451 27,100 2,250 Climbing Jacksonville Center
15:10 29.2681 -81.5594 342° North 400 460 29,300 2,550 Climbing Jacksonville Center
15:11 29.3831 -81.6008 343° North 421 484 32,200 2,750 Climbing Jacksonville Center
15:12 29.4919 -81.6375 344° North 421 484 34,800 1,400 Climbing Jacksonville Center
15:13 29.6011 -81.6744 344° North 416 479 35,000 100 Climbing Jacksonville Center
15:14 29.7097 -81.7064 346° North 410 472 35,000  Level Jacksonville Center
15:15 29.8208 -81.7411 345° North 405 466 35,000  Level Jacksonville Center
15:16 29.9317 -81.7733 346° North 405 466 35,000  Level Jacksonville Center
15:17 30.0406 -81.8056 346° North 400 460 35,000  Level Jacksonville Center
15:18 30.1514 -81.8381 346° North 400 460 35,000  Level Jacksonville Center
15:19 30.2603 -81.8706 346° North 400 460 35,000  Level Jacksonville Center
15:20 30.3714 -81.9056 345° North 400 460 35,000  Level Jacksonville Center
15:21 30.4800 -81.9381 346° North 405 466 35,000  Level Jacksonville Center
15:22 30.5828 -81.9756 343° North 410 472 35,000  Level Jacksonville Center
15:23 30.6914 -82.0083 345° North 410 472 35,000  Level Jacksonville Center
15:24 30.8025 -82.0436 345° North 410 472 35,000  Level Jacksonville Center
15:25 30.9133 -82.0767 346° North 410 472 35,000  Level Jacksonville Center
15:26 31.0242 -82.1119 345° North 410 472 35,000  Level Jacksonville Center
15:27 31.1267 -82.1622 337° Northwest 405 466 35,000  Level Jacksonville Center
15:28 31.2314 -82.2122 338° Northwest 405 466 35,000  Level Jacksonville Center
15:29 31.3381 -82.2603 339° North 405 466 35,000  Level Jacksonville Center
15:30 31.4428 -82.3081 339° North 405 466 35,000  Level Jacksonville Center
15:31 31.5600 -82.3586 340° North 405 466 35,000  Level Jacksonville Center
15:32 31.7217 -82.4347 338° Northwest 392 451 35,000  Level Atlanta Center
15:33 31.8244 -82.4844 338° Northwest 392 451 35,000  Level Atlanta Center
15:34 31.9272 -82.5339 338° Northwest 397 457 35,000  Level Atlanta Center
15:35 32.0181 -82.6108 324° Northwest 397 457 35,000 -100 Level Atlanta Center
15:36 32.1003 -82.6978 318° Northwest 397 457 34,800 -550 Descending Atlanta Center
15:37 32.1867 -82.7775 322° Northwest 397 457 33,900 -950 Descending Atlanta Center
15:38 32.2711 -82.8597 321° Northwest 392 451 32,900 -1,000 Descending Atlanta Center
15:39 32.3575 -82.9447 320° Northwest 392 451 31,900 -950 Descending Atlanta Center
15:40 32.4458 -83.0369 319° Northwest 402 463 31,000 -900 Descending Atlanta Center
15:41 32.5383 -83.1272 321° Northwest 413 475 30,100 -950 Descending Atlanta Center
15:42 32.6289 -83.2175 320° Northwest 418 481 29,100 -950 Descending Atlanta Center
15:43 32.7214 -83.3106 320° Northwest 418 481 28,200 -950 Descending Atlanta Center
15:44 32.8117 -83.4011 320° Northwest 418 481 27,200 -1,450 Descending Atlanta Center
15:45 32.8997 -83.4897 320° Northwest 423 487 25,300 -2,400 Descending Atlanta Center
15:46 32.9897 -83.5781 321° Northwest 418 481 22,400 -2,950 Descending Atlanta Center
15:47 33.0736 -83.6694 318° Northwest 413 475 19,400 -3,231 Descending Atlanta Center
15:48 33.1667 -83.7500 324° Northwest 402 463 16,100 -2,973 Descending Atlanta TRACON
15:49 33.2333 -83.8333 314° West 397 457 13,900 -1,684 Descending Atlanta TRACON
15:50 33.3000 -83.9333 309° West 389 448 12,900 -950 Descending Atlanta TRACON
15:51 33.3667 -84.0333 309° West 383 441 12,000 -500 Descending Atlanta TRACON
15:52 33.4167 -84.1167 306° West 327 376 11,900 -50 Descending Atlanta TRACON
15:53 33.4667 -84.2000 306° West 288 331 11,900  Level Atlanta TRACON
15:54 33.5167 -84.2667 312° West 256 295 11,900 -316 Level Atlanta TRACON
15:55 33.5500 -84.3333 301° West 241 277 11,300 -1,050 Descending Atlanta TRACON
15:56 33.5500 -84.4167 270° West 245 282 9,800 -1,400 Descending Atlanta TRACON
15:57 33.5500 -84.4833 270° West 238 274 8,500 -1,350 Descending Atlanta TRACON
15:58 33.5500 -84.5667 270° West 224 258 7,100 -1,381 Descending Atlanta TRACON
15:59 33.5500 -84.6500 270° West 226 260 5,600 -1,500 Descending Atlanta TRACON
16:00 33.6000 -84.6667 344° North 236 272 4,100 -1,050 Descending Atlanta TRACON
16:01 33.6333 -84.6167 51° Northeast 200 230 3,500 -750 Descending Atlanta TRACON
16:02 33.6333 -84.5500 90° East 192 221 2,600 -947 Descending Atlanta TRACON
16:03 33.6333 -84.5000 90° East 161 185 1,700 -1,000 Descending Atlanta TRACON
16:05 33.6367 -84.4279 64° Northeast  Level Estimated
16:12 33.6367 -84.4279 64° Northeast  Level Estimated
16:13 33.6367 -84.4279 64° Northeast  Level Estimated

Login

Don't have an account? Register now (free) for customized features, flight alerts, and more!